sat.trackr.live / text

‹ back to catalog

FLOCK 4G-4

NORAD 62659 · 2025-009BC

PAYLOAD ACTIVE UNKNOWN

§ Identity

Operator
Country
US
Launch date
2025-01-14
Launch site
AFWTR
Launch vehicle
Mass (kg)
RCS (m²)

Purposes: earth_obs

External: N2YO · Heavens-Above · Gunter

§ Orbital elements

Epoch: 2026-09-19T04:42:07.819776Z

Period
93.73 min
Inclination
97.3874°
Eccentricity
0.0002022
Mean motion
15.36355670 rev/d
Perigee alt
455.5 km
Apogee alt
458.3 km
Semi-major
6,835.0 km
B*
5.1850e-4
RAAN
343.5114°
Arg perigee
348.2928°
Mean anomaly
11.8269°
Rev number
15,091

§ Raw data

FLOCK 4G-41 62659U 25009BC  26262.19592384  .00018324  00000+0  51850-3 0  99922 62659  97.3874 343.5114 0002022 348.2928  11.8269 15.36355670150915

JSON: /api/v1/satellites/62659 · /tle

For live sub-satellite position, see the globe view (requires WebGL).

§ Visibility from observer

Set your observer location to see the next 7 days of passes ≥ 10°. The values pass through the URL so the page stays shareable.

No JS? Fill the form by hand. The geolocation button needs JavaScript.